Location: Canazei
(46.4667°N, 11.7667°E)
Time: 04:50:57
(UTC+00:00)

Helios 1B rocket - Pass Details

Date: 21 April 2021
Orbit: 575 x 582 km, 98.2° (Epoch: 10 May)

Event Time Altitude Azimuth Distance (km) Brightness Sun altitude
Rises 01:09:20 0° 10° (N) 2,810 7.0 -26.0°
Reaches altitude 10° 01:11:30 10° 7° (N) 1,906 5.9 -25.8°
Enters shadow 01:14:49 51° 336° (NNW) 738 3.0 -25.5°
